Total_Precipitation_Accumulation
0.14 0.38 0.67 0.81 0.94 0.53 0.25 0.16 0.10 0.09 0.09 0.03 0.02 0.04 0.13 0.24 0.41 0.60 0.32 0.16 0.07 0.04 0.04 0.12 0.22 0.20 0.19 0.26 0.35 0.46 0.52 0.61 0.49 0.40 0.32 0.25 0.19 0.19 0.19 0.14 0.16 0.21 0.16 0.14 0.20 0.33 0.37 0.41 0.44
0.32 0.70 0.82 1.10 0.92 0.37 0.32 0.25 0.20 0.15 0.08 0.04 0.03 0.03 0.08 0.08 0.07 0.15 0.26 0.22 0.07 0.05 0.08 0.19 0.26 0.24 0.27 0.35 0.42 0.49 0.57 0.67 0.58 0.44 0.32 0.22 0.19 0.20 0.20 0.29 0.36 0.26 0.13 0.11 0.18 0.33 0.36 0.35 0.43
0.40 0.69 0.86 0.99 0.54 0.34 0.38 0.32 0.25 0.15 0.06 0.05 0.04 0.03 0.08 0.13 0.15 0.24 0.29 0.18 0.08 0.06 0.15 0.32 0.38 0.34 0.37 0.45 0.55 0.58 0.66 0.68 0.59 0.45 0.27 0.22 0.23 0.25 0.33 0.43 0.36 0.19 0.11 0.10 0.16 0.27 0.31 0.27 0.28
0.46 0.79 0.86 0.67 0.43 0.31 0.32 0.31 0.20 0.15 0.08 0.04 0.03 0.06 0.10 0.12 0.20 0.31 0.28 0.22 0.17 0.14 0.17 0.31 0.41 0.38 0.41 0.53 0.67 0.66 0.68 0.72 0.66 0.47 0.31 0.25 0.26 0.25 0.30 0.37 0.32 0.16 0.08 0.07 0.12 0.22 0.28 0.26 0.24
0.45 0.73 0.91 0.68 0.44 0.36 0.29 0.25 0.15 0.14 0.11 0.07 0.04 0.12 0.22 0.26 0.25 0.31 0.36 0.39 0.37 0.28 0.23 0.29 0.39 0.38 0.43 0.58 0.69 0.72 0.75 0.76 0.71 0.50 0.38 0.33 0.30 0.25 0.29 0.31 0.26 0.13 0.08 0.08 0.11 0.18 0.22 0.21 0.23
0.51 0.73 1.09 0.96 0.65 0.45 0.32 0.24 0.15 0.16 0.13 0.11 0.12 0.21 0.28 0.36 0.37 0.39 0.38 0.43 0.46 0.47 0.40 0.35 0.45 0.49 0.50 0.59 0.65 0.70 0.75 0.78 0.73 0.52 0.44 0.40 0.35 0.30 0.29 0.28 0.22 0.14 0.12 0.12 0.12 0.15 0.17 0.16 0.19
0.52 0.76 1.01 0.83 0.70 0.67 0.46 0.23 0.18 0.17 0.17 0.16 0.18 0.30 0.33 0.39 0.35 0.47 0.52 0.53 0.59 0.59 0.56 0.50 0.50 0.54 0.64 0.71 0.74 0.74 0.76 0.78 0.80 0.64 0.53 0.48 0.39 0.31 0.27 0.24 0.18 0.14 0.14 0.13 0.11 0.11 0.11 0.11 0.16
0.24 0.40 0.67 0.70 0.66 0.67 0.43 0.19 0.14 0.13 0.13 0.11 0.15 0.29 0.37 0.37 0.37 0.48 0.56 0.58 0.59 0.61 0.61 0.57 0.59 0.67 0.66 0.72 0.88 0.93 0.92 0.94 0.95 0.79 0.64 0.55 0.38 0.29 0.28 0.20 0.18 0.16 0.17 0.17 0.14 0.12 0.10 0.11 0.15
0.28 0.44 0.80 0.97 0.74 0.57 0.31 0.19 0.12 0.10 0.10 0.09 0.10 0.18 0.26 0.29 0.38 0.47 0.57 0.59 0.60 0.58 0.58 0.57 0.61 0.72 0.78 0.75 0.84 1.10 1.12 1.13 1.08 0.93 0.79 0.66 0.51 0.42 0.39 0.30 0.33 0.25 0.20 0.22 0.23 0.20 0.14 0.11 0.12
0.45 0.63 0.90 0.86 0.50 0.36 0.25 0.21 0.15 0.13 0.12 0.10 0.13 0.20 0.29 0.37 0.46 0.51 0.54 0.57 0.59 0.61 0.56 0.55 0.54 0.60 0.69 0.74 0.85 1.01 1.00 1.00 0.98 1.12 1.02 0.88 0.80 0.67 0.38 0.40 0.43 0.39 0.33 0.29 0.26 0.24 0.15 0.09 0.07
0.36 0.49 0.48 0.50 0.33 0.21 0.18 0.15 0.14 0.16 0.19 0.15 0.17 0.22 0.31 0.41 0.49 0.54 0.57 0.56 0.59 0.57 0.52 0.47 0.44 0.44 0.50 0.63 0.80 0.90 1.01 1.11 1.06 1.02 1.02 0.98 0.85 0.66 0.50 0.50 0.47 0.45 0.40 0.31 0.31 0.24 0.15 0.11 0.10
0.22 0.24 0.22 0.18 0.15 0.15 0.17 0.14 0.14 0.15 0.18 0.15 0.17 0.22 0.31 0.37 0.45 0.48 0.51 0.51 0.49 0.50 0.52 0.46 0.36 0.36 0.38 0.46 0.55 0.66 0.80 0.92 0.95 0.80 0.76 0.84 0.85 0.73 0.59 0.55 0.52 0.49 0.47 0.46 0.44 0.37 0.25 0.18 0.13
0.23 0.21 0.15 0.17 0.17 0.16 0.15 0.16 0.14 0.13 0.17 0.17 0.21 0.27 0.32 0.39 0.45 0.47 0.44 0.43 0.42 0.47 0.53 0.49 0.41 0.39 0.37 0.41 0.43 0.44 0.63 0.80 0.90 0.92 0.79 0.76 0.78 0.76 0.68 0.54 0.53 0.46 0.45 0.47 0.46 0.39 0.31 0.27 0.20
0.19 0.21 0.23 0.22 0.19 0.16 0.14 0.14 0.13 0.18 0.21 0.19 0.19 0.23 0.29 0.37 0.43 0.44 0.42 0.42 0.41 0.44 0.53 0.53 0.51 0.51 0.46 0.40 0.40 0.42 0.51 0.63 0.71 0.86 0.87 0.81 0.74 0.70 0.72 0.65 0.63 0.62 0.58 0.56 0.49 0.40 0.41 0.36 0.26
0.11 0.15 0.19 0.18 0.18 0.16 0.15 0.15 0.15 0.24 0.24 0.21 0.18 0.19 0.23 0.30 0.34 0.36 0.37 0.37 0.41 0.42 0.44 0.45 0.46 0.54 0.54 0.52 0.50 0.50 0.59 0.61 0.68 0.74 0.75 0.83 0.74 0.67 0.72 0.74 0.72 0.70 0.70 0.65 0.59 0.51 0.50 0.42 0.30
0.12 0.20 0.31 0.25 0.22 0.20 0.21 0.19 0.17 0.26 0.24 0.23 0.22 0.22 0.21 0.24 0.28 0.31 0.34 0.34 0.37 0.36 0.37 0.42 0.41 0.47 0.56 0.61 0.64 0.69 0.71 0.75 0.82 0.79 0.75 0.76 0.72 0.69 0.78 0.78 0.79 0.83 0.73 0.67 0.65 0.63 0.60 0.51 0.41
0.25 0.27 0.30 0.27 0.21 0.20 0.22 0.18 0.19 0.24 0.22 0.20 0.20 0.21 0.21 0.23 0.26 0.29 0.31 0.32 0.33 0.34 0.35 0.39 0.43 0.49 0.54 0.60 0.71 0.81 0.89 0.97 1.11 1.08 1.03 0.97 0.85 0.86 0.92 0.96 0.97 0.98 0.96 0.85 0.71 0.67 0.68 0.67 0.59
0.39 0.21 0.18 0.17 0.17 0.17 0.18 0.18 0.18 0.20 0.18 0.16 0.16 0.15 0.18 0.22 0.25 0.28 0.30 0.32 0.34 0.34 0.35 0.40 0.47 0.55 0.65 0.80 1.02 1.26 1.33 1.51 1.73 1.68 1.53 1.34 1.16 1.12 1.21 1.19 1.15 1.19 1.24 1.21 0.98 0.97 0.89 0.78 0.71
0.20 0.12 0.10 0.11 0.13 0.12 0.12 0.13 0.13 0.13 0.12 0.13 0.12 0.12 0.12 0.13 0.17 0.20 0.22 0.25 0.24 0.24 0.28 0.35 0.40 0.50 0.62 0.84 1.17 1.60 1.82 1.94 1.95 1.98 1.88 1.67 1.45 1.45 1.59 1.55 1.53 1.52 1.46 1.38 1.29 1.36 1.29 1.02 0.85
0.11 0.09 0.08 0.07 0.09 0.07 0.06 0.06 0.06 0.06 0.07 0.08 0.08 0.09 0.09 0.11 0.12 0.11 0.13 0.15 0.14 0.15 0.17 0.27 0.33 0.42 0.56 0.84 1.17 1.52 1.88 1.95 1.97 1.97 1.91 1.79 1.68 1.69 1.72 1.88 1.96 1.92 1.98 1.93 1.71 1.78 1.78 1.45 1.17
0.07 0.10 0.11 0.08 0.06 0.05 0.04 0.04 0.04 0.04 0.05 0.06 0.06 0.07 0.08 0.10 0.11 0.09 0.08 0.09 0.11 0.11 0.12 0.18 0.24 0.39 0.67 1.01 1.33 1.53 1.82 1.94 2.00 1.95 1.95 1.98 1.94 1.83 1.85 1.95 2.08 2.09 2.14 2.19 2.22 2.13 2.16 1.93 1.55
0.08 0.07 0.05 0.05 0.05 0.04 0.04 0.05 0.04 0.06 0.10 0.12 0.13 0.13 0.15 0.17 0.14 0.12 0.09 0.07 0.08 0.09 0.11 0.14 0.20 0.40 0.74 1.08 1.34 1.59 1.94 2.05 2.03 2.05 2.04 2.05 2.07 2.03 2.08 2.09 2.17 2.18 2.18 2.24 2.31 2.25 2.30 2.33 1.94
0.04 0.04 0.04 0.04 0.05 0.04 0.03 0.05 0.05 0.08 0.15 0.21 0.23 0.23 0.23 0.20 0.15 0.12 0.10 0.09 0.10 0.10 0.13 0.20 0.34 0.52 0.78 0.99 1.24 1.60 1.86 1.98 2.13 2.08 2.05 2.05 2.10 2.11 2.14 2.19 2.32 2.29 2.23 2.22 2.40 2.41 2.44 2.35 2.27
0.02 0.03 0.04 0.05 0.07 0.06 0.03 0.07 0.13 0.17 0.19 0.21 0.22 0.23 0.23 0.20 0.16 0.16 0.15 0.15 0.16 0.18 0.24 0.33 0.49 0.64 0.85 1.02 1.22 1.41 1.67 1.82 1.97 2.07 2.00 1.99 2.03 2.11 2.00 1.93 2.05 2.10 2.11 2.11 2.26 2.41 2.49 2.43 2.46
0.01 0.04 0.10 0.13 0.16 0.12 0.07 0.16 0.28 0.23 0.18 0.19 0.20 0.21 0.23 0.24 0.26 0.30 0.31 0.34 0.41 0.44 0.48 0.56 0.65 0.76 0.87 0.97 1.06 1.13 1.30 1.47 1.54 1.70 1.79 1.91 1.92 1.95 1.95 1.84 1.83 1.81 1.75 1.78 1.92 1.99 2.04 2.16 2.28
0.01 0.03 0.10 0.15 0.15 0.15 0.17 0.36 0.41 0.27 0.23 0.22 0.23 0.25 0.29 0.37 0.43 0.53 0.61 0.69 0.76 0.75 0.74 0.81 0.86 0.84 0.83 0.87 0.94 0.97 1.04 1.12 1.20 1.25 1.29 1.47 1.63 1.66 1.71 1.69 1.62 1.61 1.66 1.67 1.75 1.77 1.77 1.78 1.86
0.01 0.03 0.06 0.13 0.12 0.13 0.20 0.43 0.44 0.32 0.31 0.31 0.32 0.33 0.42 0.61 0.71 0.81 0.91 0.92 0.93 0.90 0.85 0.86 0.89 0.86 0.84 0.84 0.84 0.80 0.79 0.86 0.96 0.99 1.05 1.12 1.22 1.23 1.29 1.37 1.40 1.43 1.50 1.56 1.67 1.74 1.74 1.68 1.66
0.03 0.07 0.13 0.26 0.34 0.30 0.31 0.48 0.52 0.44 0.39 0.37 0.41 0.49 0.65 0.91 1.06 1.19 1.27 1.17 1.10 1.09 1.13 1.01 0.92 0.85 0.82 0.82 0.82 0.76 0.73 0.77 0.81 0.81 0.87 0.85 0.87 0.87 0.92 1.04 1.17 1.32 1.43 1.50 1.57 1.61 1.67 1.70 1.67
0.10 0.16 0.24 0.37 0.45 0.57 0.70 0.85 0.68 0.58 0.58 0.65 0.75 0.83 1.00 1.26 1.43 1.52 1.53 1.43 1.23 1.10 1.09 1.04 0.93 0.82 0.71 0.70 0.76 0.76 0.71 0.72 0.76 0.75 0.70 0.64 0.66 0.71 0.81 0.85 0.98 1.10 1.21 1.40 1.57 1.59 1.59 1.61 1.59
0.22 0.37 0.50 0.74 0.74 0.67 0.87 1.09 0.84 0.69 0.71 0.74 0.80 0.92 1.10 1.22 1.30 1.34 1.30 1.29 1.18 1.08 1.00 0.95 0.85 0.71 0.65 0.70 0.72 0.75 0.67 0.61 0.64 0.63 0.64 0.57 0.54 0.58 0.65 0.76 0.91 1.03 1.10 1.13 1.22 1.30 1.31 1.32 1.36